Lucknow, India

12:05 PM IST on April 28, 2017 (GMT +0530)
Lucknow

Weather History for VILK - January, 2013

Change the Weather History Date:

Monday, January 7, 2013

  Actual Average Record
Temperature  
Mean Temperature 44 °F -  
Max Temperature 55 °F 67 °F 80 °F (2016)
Min Temperature 34 °F 49 °F 34 °F (2013)
Degree Days  
Heating Degree Days 20    
Moisture  
Dew Point 39 °F    
Average Humidity 80    
Maximum Humidity 100    
Minimum Humidity 32    
Precipitation  
Precipitation 0.00 in - - ()
Sea Level Pressure  
Sea Level Pressure 30.05 in    
Wind  
Wind Speed 5 mph ()    
Max Wind Speed 7 mph    
Max Gust Speed -    
Visibility 0.7 miles    
Events Fog    
Averages and records for this station are not official NWS values.
T = Trace of Precipitation, MM = Missing Value Source: Averaged Metar Reports

Daily Weather History Graph

Daily Weather History Graph

Search for Another Location

Airport or City:

Trip Planner

Search our weather history database for the weather conditions in past years. The results will help you decide how hot, cold, wet, or windy it might be!

Date:

Astronomy

Jan. 07, 2013 Rise Set
Actual Time 6:56 AM IST 5:29 PM IST
Civil Twilight 6:31 AM IST 5:54 PM IST
Nautical Twilight 6:02 AM IST 6:23 PM IST
Astronomical Twilight 5:34 AM IST 6:51 PM IST
Moon 1:56 AM IST (1/7) 1:11 PM IST (1/7)
Length of Visible Light 11h 23m
Length of Day
10h 32m
Waning Crescent, 27% of the Moon is Illuminated
Jan 7
Waning Crescent
Jan 12
New
Jan 19
First Quarter
Jan 27
Full
Feb 3
Last Quarter

Hourly Weather History & Observations

Time (IST) Temp. Windchill Dew Point Humidity Pressure Visibility Wind Dir Wind Speed Gust Speed Precip Events Conditions
12:00 AM 42.8 °F 40.1 °F 41.0 °F 93% 30.01 in 0.2 mi WNW 4.6 mph - N/A Fog Fog
1:00 AM 41.0 °F - 39.2 °F 93% 30.01 in 0.2 mi Variable 2.3 mph - N/A Fog Fog
2:00 AM 39.2 °F 35.9 °F 37.4 °F 93% 30.01 in 0.1 mi West 4.6 mph - N/A Fog Fog
2:30 AM 38 °F - 37 °F 96% 30.04 in 0 mi West 4.6 mph - - Fog Heavy Fog
5:00 AM 39.2 °F 35.9 °F 37.4 °F 93% 30.01 in - West 4.6 mph - N/A Fog Fog
5:30 AM 37.4 °F 33.8 °F 37.4 °F 100% 30.04 in - West 4.6 mph - N/A Fog Fog
6:00 AM 37.4 °F 33.8 °F 37.4 °F 100% 30.04 in - West 4.6 mph - N/A Fog Fog
6:30 AM 37.4 °F 32.1 °F 37.4 °F 100% 30.04 in - WNW 6.9 mph - N/A Fog Fog
7:00 AM 37.4 °F 32.1 °F 37.4 °F 100% 30.04 in 0.0 mi WNW 6.9 mph - N/A Fog Fog
7:30 AM 37.4 °F 32.1 °F 37.4 °F 100% 30.04 in 0.0 mi WNW 6.9 mph - N/A Fog Fog
8:30 AM 40 °F - 39 °F 95% 30.13 in 0 mi West 5.8 mph - - Fog Heavy Fog
8:30 AM 39.2 °F 35.0 °F 39.2 °F 100% 30.09 in 0.1 mi West 5.8 mph - N/A Fog Fog
10:30 AM 42.8 °F 41.1 °F 39.2 °F 87% 30.12 in 0.5 mi West 3.5 mph - N/A Fog Fog
11:00 AM 42.8 °F 40.1 °F 39.2 °F 87% 30.12 in 0.6 mi WSW 4.6 mph - N/A Fog Shallow Fog
11:30 AM 45 °F - 38 °F 68% 30.14 in 1 mi West 5.8 mph - -   Mist
11:30 AM 44.6 °F 41.4 °F 37.4 °F 76% 30.09 in 0.9 mi West 5.8 mph - N/A   Mostly Cloudy
12:30 PM 48.2 °F - 37.4 °F 66% 30.06 in 0.9 mi WSW 6.9 mph - N/A   Mostly Cloudy
1:00 PM 48.2 °F - 39.2 °F 71% 30.06 in 1.0 mi West 6.9 mph - N/A   Haze
1:30 PM 50.0 °F - 37.4 °F 62% 30.06 in 1.0 mi WNW 4.6 mph - N/A   Haze
2:00 PM 53.6 °F - 39.2 °F 58% 30.04 in 1.1 mi West 4.6 mph - N/A   Scattered Clouds
2:30 PM 54 °F - 33 °F 32% 30.05 in 1 mi NW 5.8 mph - -   Haze
2:30 PM 53.6 °F - 39.2 °F 58% 30.01 in 1.1 mi NW 5.8 mph - N/A   Haze
3:00 PM 53.6 °F - 39.2 °F 58% 30.01 in 1.1 mi WNW 5.8 mph - N/A   Haze
4:00 PM 55.4 °F - 39.2 °F 54% 30.01 in 1.2 mi NW 5.8 mph - N/A   Haze
4:30 PM 53.6 °F - 39.2 °F 58% 30.01 in 1.2 mi WNW 5.8 mph - N/A   Haze
5:00 PM 53.6 °F - 41.0 °F 62% 30.01 in 1.2 mi WNW 6.9 mph - N/A   Haze
5:30 PM 51.8 °F - 41.0 °F 67% 30.01 in 1.1 mi WNW 4.6 mph - N/A   Haze
8:00 PM 44.6 °F 42.2 °F 41.0 °F 87% 30.04 in 0.5 mi NNW 4.6 mph - N/A Fog Shallow Fog
8:30 PM 44 °F - 40 °F 81% 30.09 in 1 mi NW 5.8 mph - - Fog Patches of Fog
8:30 PM 44.6 °F 41.4 °F 41.0 °F 87% 30.04 in 0.6 mi NW 5.8 mph - N/A Fog Shallow Fog
9:00 PM 42.8 °F 39.3 °F 39.2 °F 87% 30.04 in 0.6 mi NNW 5.8 mph - N/A Fog Shallow Fog
11:00 PM 42.8 °F 39.3 °F 39.2 °F 87% 30.04 in 0.6 mi NNW 5.8 mph - N/A Fog Shallow Fog